www.pogodaiklimat.ru

Погода и климат >> Архив погоды >> Испания >> Бильбао


ПОГОДА в Бильбао

  • Прогноз погоды в Бильбао
  • Монитор погоды в Бильбао

АРХИВ ПОГОДЫ в Бильбао

Время (UTC), дата Ветер
(напр.,м/с)
 
Видим.   Явления Облачность Т
(С)
Тd
(С)
f
(%)
Тe
(С)
Тes
(С)
Комфортность P
(гПа)
Po
(гПа)
Тmin
(С)
Tmax
(С)
R
(мм)
R24
(мм)
S
(см)
22 10.06 З 1 н/о осадки н/о +12.5 +10.6 88 +13 +13 1018.1 1013.4
23 10.06 Ю 1 н/о осадки н/о +12.1 +10.5 90 +12 +12 1018.1 1013.4
00 11.06 СЗ 2 н/о осадки н/о +11.6 +10.3 92 +10 +10 1017.5 1012.8 2
01 11.06 штиль 0 н/о осадки н/о +11.4 +10.5 94 +11 +11 1017.1 1012.4
02 11.06 В 1 н/о осадки н/о +11.1 +10.0 93 +11 +11 1016.7 1012.0
03 11.06 З 2 15 км слаб. дождь 10/10 300 м
[Cu Sc]
+11.2 +9.9 92 +10 +10 1016.4 1011.7 3
04 11.06 З 2 н/о осадки н/о +11.1 +9.8 92 +10 +10 1016.1 1011.4
05 11.06 З 2 н/о осадки н/о +11.1 +10.2 94 +10 +10 1016.2 1011.5
06 11.06 З 2 20 км в посл. час дождь 9/9 300 м
[Cu Sc]
+11.6 +9.8 89 +11 +11 1016.3 1011.6 +10.8 1
07 11.06 З 2 н/о осадки н/о +12.2 +9.6 84 +12 +12 1016.4 1011.7
08 11.06 СЗ 5 н/о осадки н/о +12.3 +9.7 84 +10 +10 1016.8 1012.1
09 11.06 СЗ 6 15 км дождь 9/9 600 м
[Cu Sc]
+12.1 +9.9 86 +9 +10 1017.2 1012.5 2
10 11.06 СЗ 7 н/о в посл. час осадки н/о +13.8 +9.4 75 +12 +12 1017.4 1012.7
11 11.06 СЗ 3 н/о осадки н/о +12.9 +10.3 84 +11 +11 1017.7 1013.0
12 11.06 СЗ 6 25 км в посл. час дождь 9/9 600 м
[Cu Sc]
+15.2 +11.0 76 +14 +14 1017.6 1013.0 1
13 11.06 СЗ 7 н/о н/о +15.4 +9.0 66 +14 +14 1017.4 1012.8
14 11.06 СЗ 9 н/о н/о +15.9 +9.8 67 +14 +14 1017.4 1012.8
15 11.06 СЗ 10 25 км 8/8 900 м
[Cu med, cong Ac cast]
+15.8 +9.8 67 +14 +14 1017.3 1012.7
16 11.06 СЗ 9 н/о н/о +15.6 +9.5 67 +14 +14 1017.3 1012.7
17 11.06 СЗ 9 н/о н/о +16.3 +9.8 65 +15 +15 1017.1 1012.5
18 11.06 СЗ 6 20 км 9/8 600 м
[Cu Sc Ac cast Ci fib]
+15.0 +9.1 68 +13 +13 1017.1 1012.4 +16.9
19 11.06 З 6 н/о н/о +14.7 +8.0 64 +13 +13 1017.2 1012.5
20 11.06 З 4 н/о н/о +13.9 +8.5 70 +13 +13 1017.0 1012.3
21 11.06 З 4 15 км 8/6 600 м
[Cu Sc Ac lent Ci fib]
+13.9 +8.5 70 +12 +12 1017.0 1012.3
22 11.06 З 4 н/о н/о +13.8 +7.7 67 +12 +12 1016.6 1011.9
23 11.06 З 5 н/о н/о +13.8 +7.6 66 +12 +12 1016.1 1011.4
00 12.06 З 3 н/о н/о +13.6 +6.5 62 +13 +13 1015.9 1011.2
01 12.06 З 3 н/о н/о +13.4 +5.8 60 +12 +12 1015.5 1010.8
02 12.06 З 4 н/о н/о +13.6 +5.2 57 +12 +12 1014.9 1010.2
03 12.06 З 4 15 км 10/10 1000 м
[Cu Sc]
+13.6 +5.3 57 +12 +12 1014.5 1009.8
04 12.06 З 4 н/о н/о +13.6 +5.0 56 +12 +12 1014.5 1009.8
05 12.06 З 3 н/о н/о +13.6 +5.0 56 +13 +13 1014.7 1010.0
06 12.06 З 3 20 км 8/1 1500 м
[Cu Sc Ac trans Ci fib]
+13.8 +4.9 55 +13 +13 1014.8 1010.1 +13.2
07 12.06 ЮЗ 3 н/о н/о +14.1 +4.9 54 +13 +13 1015.3 1010.6
08 12.06 З 4 н/о н/о +15.1 +4.5 49 +14 +14 1015.3 1010.7
09 12.06 СЗ 4 20 км 9/8 1000 м
[Cu Sc Ac trans]
+15.0 +5.5 53 +14 +15 1015.4 1010.8
10 12.06 СЗ 3 н/о н/о +15.7 +6.1 53 +15 +15 1015.8 1011.2
11 12.06 СЗ 3 н/о н/о +16.9 +6.9 52 +17 +17 1015.7 1011.1
12 12.06 СЗ 6 25 км 8/5 1000 м
[Cu Sc Ac trans Ci fib]
+18.1 +8.6 54 +18 +20 1015.5 1010.9
13 12.06 С 7 н/о н/о +18.0 +9.7 58 +17 +17 1015.3 1010.7
14 12.06 СЗ 7 н/о н/о +17.6 +8.5 55 +17 +17 1015.3 1010.7
15 12.06 СЗ 6 40 км 3/1 1000 м
[Cu Sc Cs]
+17.7 +10.0 61 +17 +21 1015.1 1010.5
16 12.06 С 7 н/о н/о +17.4 +8.7 57 +16 +16 1015.1 1010.5
17 12.06 СЗ 4 н/о н/о +15.9 +8.4 61 +15 +15 1015.0 1010.4
18 12.06 С 3 40 км 4/3 600 м
[Cu Sc Ac trans Cc]
+16.0 +9.5 65 +16 +17 1015.2 1010.6 +18.7
19 12.06 С 2 н/о н/о +14.7 +10.2 74 +14 +14 1015.3 1010.7
20 12.06 С 2 н/о н/о +14.1 +10.3 78 +14 +14 1015.4 1010.7
21 12.06 В 2 15 км 4/4 600 м
[Cu Sc]
+12.9 +10.4 85 +12 +12 1015.9 1011.2
22 12.06 В 3 н/о н/о +11.6 +9.9 89 +10 +10 1015.6 1010.9
23 12.06 В 3 н/о н/о +11.3 +9.9 91 +10 +10 1015.1 1010.4
00 13.06 ЮВ 2 н/о н/о +10.4 +9.3 93 +9 +9 1014.6 1009.9
01 13.06 Ю 1 н/о н/о +10.1 +9.2 94 +9 +9 1014.0 1009.2
02 13.06 ЮВ 2 н/о н/о +9.4 +8.6 95 +8 +8 1013.6 1008.8
03 13.06 В 2 30 км 4/0
[Ac trans Ci fib]
+9.4 +8.6 95 +8 +8 1013.4 1008.6
04 13.06 ЮВ 1 н/о н/о +9.2 +8.6 96 +8 +8 1013.5 1008.7
05 13.06 В 3 н/о н/о +9.6 +8.9 95 +7 +7 1013.4 1008.6
06 13.06 ЮВ 2 20 км 9/8 600 м
[Cu Sc Ac trans]
+10.3 +9.4 94 +9 +9 1013.3 1008.6 +8.8
07 13.06 В 2 н/о н/о +12.4 +10.1 86 +11 +11 1013.4 1008.7
08 13.06 штиль 0 н/о н/о +15.3 +10.8 75 +15 +15 1013.0 1008.4
09 13.06 СВ 2 20 км 9/9 600 м
[Cu Sc]
+17.1 +10.5 65 +18 +19 1012.8 1008.2
10 13.06 СВ 1 н/о н/о +18.3 +10.7 61 +20 +20 1012.4 1007.8
11 13.06 СЗ 4 н/о н/о +17.3 +12.0 71 +17 +17 1012.1 1007.4
12 13.06 СВ 3 20 км 9/9 600 м
[Cu Sc]
+18.8 +12.6 67 +20 +21 1011.6 1007.0
13 13.06 СВ 5 н/о н/о +18.8 +12.3 66 +19 +19 1011.3 1006.7
14 13.06 СВ 5 н/о н/о +17.6 +12.1 70 +17 +17 1011.4 1006.8
15 13.06 СВ 4 20 км 10/10 600 м
[Cu Sc]
+16.6 +11.9 74 +16 +16 1011.8 1007.2
16 13.06 С 4 н/о н/о +16.3 +11.1 71 +16 +16 1012.3 1007.7
17 13.06 С 3 н/о н/о +16.2 +11.1 72 +16 +16 1012.5 1007.9
18 13.06 С 4 20 км 10/10 600 м
[Cu Sc]
+15.5 +11.5 77 +15 +15 1013.1 1008.5 +19.3
19 13.06 СЗ 3 н/о н/о +15.1 +11.1 77 +14 +14 1013.8 1009.2
20 13.06 СЗ 3 н/о н/о +14.2 +11.5 84 +13 +13 1014.8 1010.1
21 13.06 СЗ 1 15 км 10/10 100 м
[Cu Sc]
+14.2 +11.7 85 +15 +15 1015.4 1010.7
22 13.06 штиль 0 н/о н/о +14.3 +11.8 85 +14 +14 1015.7 1011.0
23 13.06 В 1 н/о н/о +13.5 +11.7 89 +14 +14 1015.6 1010.9
00 14.06 В 1 н/о н/о +13.3 +11.7 90 +13 +13 1015.2 1010.5
01 14.06 В 1 н/о н/о +13.1 +11.7 91 +13 +13 1014.8 1010.1
02 14.06 В 2 н/о н/о +12.4 +11.5 94 +12 +12 1014.4 1009.7
03 14.06 В 2 20 км 8/3 1500 м
[Cu Sc Ac lent Cs]
+11.3 +10.4 94 +10 +10 1013.7 1009.0
04 14.06 штиль 0 н/о н/о +10.8 +10.2 96 +10 +10 1013.9 1009.2
05 14.06 ЮВ 2 н/о н/о +10.3 +9.7 96 +9 +9 1014.2 1009.5
06 14.06 ЮВ 1 20 км 6/5 300 м
[Sc Ac und Ci fib]
+11.8 +10.9 94 +12 +12 1014.1 1009.4 +10.2
07 14.06 штиль 0 н/о н/о +15.0 +11.9 82 +15 +15 1013.9 1009.3
08 14.06 В 3 н/о н/о +16.1 +11.2 73 +16 +16 1013.9 1009.3
09 14.06 В 3 25 км 10/10 600 м
[Cu Sc]
+16.5 +10.8 69 +16 +16 1013.8 1009.2
10 14.06 В 3 н/о н/о +16.2 +11.5 74 +16 +16 1013.9 1009.3
11 14.06 С 2 н/о н/о +16.6 +11.6 72 +17 +17 1013.9 1009.3
12 14.06 С 3 20 км 10/10 600 м
[Cu Sc]
+15.9 +12.3 79 +15 +15 1014.1 1009.5
13 14.06 С 4 н/о н/о +15.9 +12.6 81 +15 +15 1014.1 1009.5
14 14.06 С 4 н/о н/о +15.8 +12.4 80 +15 +15 1014.3 1009.7
15 14.06 С 3 20 км 10/10 300 м
[Cu Sc]
+16.0 +12.7 81 +16 +16 1014.4 1009.8
16 14.06 С 4 н/о н/о +15.3 +13.3 88 +14 +14 1014.7 1010.1
17 14.06 СЗ 2 н/о н/о +15.1 +13.1 88 +15 +15 1014.9 1010.3
18 14.06 СЗ 3 12 км 10/10 300 м
[Cu Sc]
+15.1 +13.0 87 +14 +14 1015.4 1010.8 +16.6
19 14.06 СЗ 2 н/о н/о +15.1 +12.2 83 +15 +15 1016.1 1011.5
20 14.06 СЗ 2 н/о н/о +15.0 +12.5 85 +15 +15 1016.5 1011.9
21 14.06 СЗ 2 15 км 10/10 300 м
[Cu Sc]
+14.8 +12.7 87 +14 +14 1017.6 1012.9
22 14.06 СЗ 2 н/о н/о +14.3 +12.5 89 +14 +14 1018.3 1013.6
23 14.06 штиль 0 н/о н/о +14.1 +12.3 89 +14 +14 1018.6 1013.9
00 15.06 В 1 н/о н/о +13.5 +12.2 92 +14 +14 1018.8 1014.1
01 15.06 штиль 0 н/о н/о +12.4 +11.6 95 +12 +12 1019.0 1014.3
02 15.06 ЮВ 2 н/о н/о +11.6 +11.0 96 +11 +11 1019.2 1014.5
03 15.06 штиль 0 15 км 1/1 600 м
[St]
+11.2 +10.6 96 +10 +10 1019.4 1014.6
04 15.06 ЮВ 1 н/о н/о +10.8 +10.3 97 +10 +10 1019.5 1014.7
05 15.06 В 2 н/о н/о +11.0 +10.7 98 +9 +9 1019.8 1015.0
06 15.06 ЮВ 2 8000 м 1/1 200 м
[St Ac trans]
+12.1 +11.5 96 +11 +12 1019.9 1015.2 +10.5
07 15.06 ЮВ 2 н/о н/о +14.8 +12.7 87 +15 +15 1020.5 1015.8
08 15.06 СВ 1 н/о н/о +17.0 +11.7 71 +18 +18 1020.9 1016.3
09 15.06 З 1 40 км 1/1 600 м
[Cu hum Ac trans]
+18.3 +10.0 58 +20 +32 1021.0 1016.4
10 15.06 З 2 н/о н/о +19.8 +9.7 52 +22 +22 комфорт 1021.1 1016.5
11 15.06 С 2 н/о н/о +20.0 +9.0 49 +22 +22 комфорт 1021.3 1016.7
12 15.06 С 4 40 км 3/3 1000 м
[Cu Sc]
+20.8 +8.3 45 +22 +32 комфорт 1021.3 1016.7
13 15.06 С 4 н/о н/о +21.0 +8.2 44 +23 +23 комфорт 1021.4 1016.8
14 15.06 С 4 н/о н/о +21.0 +8.7 45 +23 +23 комфорт 1021.4 1016.8
15 15.06 С 4 30 км 4/3 1000 м
[Cu Sc Ac trans Ci fib]
+20.3 +8.1 45 +21 +27 комфорт 1021.7 1017.0
16 15.06 С 5 н/о н/о +19.8 +9.5 51 +21 +21 комфорт 1022.0 1017.4
17 15.06 С 5 н/о н/о +19.5 +9.9 54 +20 +20 1022.3 1017.7
18 15.06 С 4 20 км 5/4 1000 м
[Cu Sc Ac und Ci fib]
+18.5 +10.7 60 +19 +20 1022.8 1018.2 +21.7
19 15.06 С 3 н/о н/о +16.9 +10.7 67 +17 +17 1023.2 1018.6
20 15.06 С 2 н/о н/о +15.7 +11.1 74 +16 +16 1023.3 1018.6
21 15.06 Ю 1 15 км ясно +13.9 +10.9 82 +14 +14 1023.9 1019.2
22 15.06 ЮВ 1 н/о н/о +13.3 +10.7 84 +13 +13 1023.9 1019.2
23 15.06 В 2 н/о н/о +12.0 +10.1 88 +11 +11 1023.9 1019.1
00 16.06 В 2 н/о н/о +11.3 +9.9 91 +10 +10 1023.6 1018.8
01 16.06 В 1 н/о н/о +11.0 +9.7 92 +11 +11 1023.2 1018.4
02 16.06 В 2 н/о н/о +10.6 +9.4 92 +9 +9 1022.8 1018.0
03 16.06 В 2 15 км 3/0
[Ci fib]
+10.0 +9.0 93 +8 +8 1022.3 1017.5
04 16.06 ЮВ 1 н/о н/о +9.6 +8.7 94 +9 +9 1022.1 1017.3
05 16.06 ЮВ 2 н/о н/о +9.7 +8.7 93 +8 +8 1022.1 1017.3
06 16.06 ЮВ 2 30 км 1/0
[Ci fib]
+11.6 +9.5 87 +10 +12 1022.2 1017.4 +9.4
07 16.06 Ю 1 н/о н/о +14.0 +10.3 78 +15 +15 1022.1 1017.4
08 16.06 ЮВ 2 н/о н/о +17.4 +11.0 66 +18 +18 1021.8 1017.2
09 16.06 ЮВ 3 40 км ясно +19.4 +12.0 62 +21 +31 комфорт 1021.2 1016.6
10 16.06 ЮВ 3 н/о н/о +21.5 +12.4 56 +24 +24 комфорт 1020.5 1015.9
11 16.06 В 3 н/о н/о +22.5 +13.2 56 +25 +25 комфорт 1019.8 1015.2
12 16.06 ЮВ 2 40 км 1/0
[Ci fib]
+23.7 +13.5 53 +26 +45 жарко 1018.8 1014.3
13 16.06 С 2 н/о н/о +24.8 +14.7 53 +27 +27 жарко 1018.1 1013.6
14 16.06 СВ 3 н/о н/о +24.9 +15.5 56 +28 +28 жарко 1017.5 1013.0
15 16.06 С 4 40 км 3/0
[Ci sp]
+24.6 +15.2 56 +28 +37 душно 1017.3 1012.8
16 16.06 З 5 н/о н/о +23.5 +15.3 60 +26 +26 жарко 1017.1 1012.6
17 16.06 З 5 н/о н/о +22.1 +15.2 65 +26 +26 душно 1017.3 1012.7
18 16.06 СЗ 6 40 км 8/1 300 м
[Sc Cs]
+19.8 +15.0 74 +22 +22 комфорт 1018.0 1013.4 +25.6
19 16.06 СЗ 6 н/о н/о +18.0 +15.1 83 +17 +17 1018.5 1013.9
20 16.06 СЗ 5 н/о н/о +16.9 +14.7 87 +16 +16 1019.0 1014.4
21 16.06 СЗ 3 15 км 8/1 300 м
[Sc Cs]
+16.6 +14.6 88 +16 +16 1019.5 1014.9
22 16.06 СЗ 2 н/о н/о +15.9 +14.1 89 +16 +16 1019.6 1015.0
23 16.06 З 1 н/о н/о +15.5 +14.0 91 +16 +16 1019.5 1014.9
00 17.06 В 1 н/о н/о +14.9 +13.6 92 +15 +15 1019.2 1014.5
01 17.06 ЮВ 1 н/о н/о +15.5 +14.4 93 +16 +16 1018.8 1014.2
02 17.06 ЮВ 1 н/о н/о +15.8 +14.3 91 +17 +17 1018.1 1013.5
03 17.06 штиль 0 12 км 9/5 200 м
[Cu Sc Ac trans Ci fib]
+15.8 +14.0 89 +16 +16 1017.7 1013.1
04 17.06 штиль 0 н/о н/о +15.1 +13.8 92 +15 +15 1017.6 1013.0
05 17.06 штиль 0 н/о н/о +14.5 +13.4 93 +14 +14 1017.6 1012.9
06 17.06 штиль 0 12 км 4/1 200 м
[St Ac trans Ci fib]
+15.6 +14.1 91 +15 +17 1017.5 1012.9 +14.4
07 17.06 Ю 1 н/о н/о +17.8 +14.3 80 +19 +19 1017.2 1012.6
08 17.06 В 2 н/о н/о +19.8 +14.8 73 +22 +22 комфорт 1016.5 1011.9
09 17.06 В 3 20 км ясно +22.2 +15.2 65 +26 +36 душно 1016.0 1011.4
10 17.06 СВ 1 н/о н/о +24.5 +15.5 57 +27 +27 жарко 1015.4 1010.9
11 17.06 СЗ 5 н/о н/о +24.7 +16.8 61 +28 +28 душно 1014.6 1010.1
12 17.06 СЗ 5 25 км 3/0
[Ci fib]
+23.7 +16.6 64 +27 +38 жарко 1014.0 1009.5
13 17.06 З 5 н/о н/о +22.8 +16.8 69 +28 +28 душно 1013.5 1009.0
14 17.06 З 5 н/о н/о +22.5 +16.8 70 +27 +27 душно 1013.1 1008.6
15 17.06 СЗ 6 25 км 5/1 600 м
[Cu hum Cs]
+21.0 +16.7 76 +25 +29 комфорт 1013.1 1008.5
16 17.06 СЗ 6 н/о н/о +19.4 +16.2 82 +21 +21 комфорт 1013.4 1008.8
17 17.06 СЗ 5 н/о н/о +18.3 +15.7 85 +18 +18 1014.1 1009.5
18 17.06 СЗ 4 12 км 10/10 300 м
[St]
+17.6 +15.2 86 +17 +17 1014.4 1009.7 +25.8
19 17.06 СЗ 3 н/о н/о +17.2 +14.8 86 +17 +17 1014.7 1010.1
20 17.06 СЗ 2 н/о н/о +17.4 +14.9 85 +18 +18 1014.7 1010.1
21 17.06 С 1 12 км 10/10 300 м
[Sc]
+17.4 +14.7 84 +18 +18 1014.7 1010.1
22 17.06 В 2 н/о н/о +17.4 +14.9 85 +18 +18 1015.1 1010.5

 

Местоположение метеостанции Бильбао (Испания): широта 43.30 долгота -2.93 высота над уровнем моря 42 м.

В архиве по умолчанию представлена погода в Бильбао за последнюю неделю. Архивные данные за месяц целиком и за предыдущие месяцы, начиная с января 2011 года, Вы можете получить, выбрав интересующий диапазон дат из раскрывающегося списка и нажав кнопку "Ввод!".


*Определитесь, кто Вы:
робот инопланетянин человек

Внимание! Время в таблицах - всемирное. Для получения местного времени необходимо прибавить поправку, которая равна 1 ч.

Смотрите также архив погоды в соседних городах и на ближайших метеорологических станциях:

Погода в Пунта Галеа (Испания) (11 км)
Погода в Гуэньесе (Испания) (18 км)
Погода в Кастро-Урдьялесе (Испания) (26 км)
Погода на Мысе Лекейтио (Испания) (35 км)
Погода в Элгойбар - Ибердрола (Испания) (43 км)
Погода в Витория-Гастейсе (Испания) (50 км)
Погода на Мысе Зумая (Испания) (55 км)
Погода в Зумаррага - Урзабалета (Испания) (55 км)
Погода в Медина-де-Помаре (Испания) (61 км)
Погода в Сан-Себастьяне (Испания) (73 км)

Пояснения к столбцам:

Ветер - указаны скорость ветра в м/с - средняя за 10 мин, порывы в срок и между сроками (в фигурных скобках) и направление, откуда дует ветер: С - северный, СВ - северо-восточный, В - восточный, ЮВ - юго-восточный, Ю - южный, ЮЗ - юго-западный, З - западный, СЗ - северо-западный.
Видимость - горизонтальная дальность видимости в метрах или километрах. При видимости от 1 до 10 км при отсутствии осадков обычно наблюдается дымка, при ухудшении видимости до 1 км и менее - туман. В сухую погоду видимость может ухудшаться дымом, пылью или мглою.
Явления - указаны атмосферные явления, наблюдавшиеся в срок или в последний час перед сроком; фигурными скобками обозначены явления, наблюдавшиеся между сроками (за 1-3 часа до срока); квадратными скобками обозначены град или гололедные отложения с указанием их диаметра в мм.
Облачность - указаны через наклонную черту общая и нижняя облачность в баллах и высота нижней границы облаков в метрах; квадратными скобками обозначены формы облаков: Ci - перистые, Cs - перисто-слоистые, Cc - перисто-кучевые, Ac - высококучевые, As - высокослоистые, Sc - слоисто-кучевые, Ns - слоисто-дождевые, Cu - кучевые, Cb - кучево-дождевые. Подробнее классификацию облаков см. в Атласе облаков (PDF).
T - Температура воздуха - температура, измеренная на высоте 2 м над землей.
Td - Температура точки росы - температура, при понижении до которой содержащийся в воздухе водяной пар достигнет насыщения.
f - Относительная влажность воздуха - влажноcть воздуха, измеренная на высоте 2 м над землей.
Te - Эффективная температура - температура, которую ощущает одетый по сезону человек в тени. Характеристика душности погоды. При расчете учитывается влияние влажности воздуха и скорости ветра на теплоощущения человека.
Tes - Эффективная температура на солнце - температура, которую ощущает человек, с поправкой на солнечный нагрев. Характеристика знойности погоды. Зависит от высоты солнца над горизонтом, облачности и скорости ветра. Ночью, в пасмурную погоду, а также при ветре 12 м/с и более поправка равна нулю.
P - Атмосферное давление - приведенное к уровню моря атмосферное давление.
Po - Атмосферное давление - измеренное на уровне метеостанции атмосферное давление.
Tmin - Минимальная температура - минимум температуры воздуха на высоте 2 м над землей.
Tmax - Максимальная температура - максимум температуры воздуха на высоте 2 м над землей.
R - Количество осадков - Количество выпавших осадков за период времени, мм. При наведении курсора мыши на число - период времени, за который выпало указанное количество осадков.
R24 - Количество осадков - Количество выпавших осадков за 24 часа, мм.
S - Снежный покров - Высота снежного покрова, см. При наведении курсора мыши на число - состояние снежного покрова и степень покрытия местности в баллах.